• In Germany
  • List of Countries
  • For 7 days
  • Water Temperature
  • Satellite Maps
  • Weather Map
  • Weather Widgets
  • user-avatar
    Login

    Hourly Weather Geislingen an der Steige

    Today, 23 November, Thursday

    Time Temperature Precipitation Wind Pressure Humidity
    00:00 +5°C° 0 mm 2 mps 718 mmHg 72%
    01:00 +5°C° 0 mm 2 mps 718 mmHg 72%
    02:00 +5°C° 0 mm 2 mps 718 mmHg 72%
    03:00 +5°C° 0 mm 2 mps 717 mmHg 72%
    04:00 +4°C° 0 mm 2 mps 717 mmHg 72%
    05:00 +3°C° 0 mm 3 mps 718 mmHg 71%
    06:00 +3°C° 0 mm 3 mps 718 mmHg 71%
    07:00 +4°C° 0 mm 2 mps 718 mmHg 74%
    08:00 +5°C° 0 mm 2 mps 718 mmHg 71%
    09:00 +7°C° 0 mm 3 mps 718 mmHg 67%
    10:00 +7°C° 0 mm 4 mps 718 mmHg 64%
    11:00 +8°C° 0 mm 4 mps 719 mmHg 61%
    12:00 +11°C° 0 mm 4 mps 719 mmHg 58%
    13:00 +12°C° 0 mm 4 mps 719 mmHg 55%
    14:00 +12°C° 0 mm 4 mps 719 mmHg 60%
    15:00 +11°C° 0 mm 3 mps 719 mmHg 64%
    16:00 +10°C° 0 mm 3 mps 719 mmHg 69%
    17:00 +9°C° 0 mm 3 mps 720 mmHg 72%
    18:00 +8°C° 0 mm 3 mps 720 mmHg 75%
    19:00 +8°C° 0 mm 3 mps 720 mmHg 78%
    20:00 +8°C° 0 mm 3 mps 721 mmHg 78%
    21:00 +8°C° 0 mm 3 mps 721 mmHg 79%
    22:00 +7°C° 0 mm 3 mps 721 mmHg 79%
    23:00 +7°C° 0 mm 3 mps 721 mmHg 79%

    Tomorrow, 24 November, Friday

    Time Temperature Precipitation Wind Pressure Humidity
    00:00 +7°C° 0 mm 3 mps 721 mmHg 80%
    01:00 +7°C° 0 mm 3 mps 721 mmHg 80%
    02:00 +7°C° 0 mm 3 mps 721 mmHg 80%
    03:00 +5°C° 0 mm 3 mps 721 mmHg 79%
    04:00 +5°C° 0 mm 3 mps 721 mmHg 79%
    05:00 +5°C° 0 mm 3 mps 720 mmHg 77%
    06:00 +5°C° 0 mm 3 mps 720 mmHg 75%
    07:00 +5°C° 0 mm 3 mps 720 mmHg 73%
    08:00 +7°C° 0 mm 3 mps 720 mmHg 69%
    09:00 +7°C° 0 mm 4 mps 720 mmHg 65%
    10:00 +10°C° 0 mm 4 mps 720 mmHg 60%
    11:00 +11°C° 0 mm 4 mps 720 mmHg 59%
    12:00 +12°C° 0 mm 4 mps 720 mmHg 58%
    13:00 +13°C° 0 mm 4 mps 719 mmHg 57%
    14:00 +13°C° 0.1 mm 4 mps 719 mmHg 63%
    15:00 +12°C° 0.1 mm 3 mps 719 mmHg 69%
    16:00 +11°C° 0.1 mm 3 mps 719 mmHg 76%
    17:00 +10°C° 0.4 mm 3 mps 720 mmHg 80%
    18:00 +9°C° 0.4 mm 3 mps 720 mmHg 84%
    19:00 +9°C° 0.4 mm 3 mps 721 mmHg 88%
    20:00 +9°C° 0.3 mm 3 mps 721 mmHg 90%
    21:00 +8°C° 0.3 mm 2 mps 721 mmHg 91%
    22:00 +8°C° 0.3 mm 2 mps 721 mmHg 93%
    23:00 +8°C° 0.5 mm 2 mps 720 mmHg 94%

    Day after tomorrow, 25 November, Saturday

    Time Temperature Precipitation Wind Pressure Humidity
    00:00 +8°C° 0.5 mm 2 mps 720 mmHg 95%
    01:00 +9°C° 0.5 mm 1 mps 720 mmHg 96%
    02:00 +8°C° 0.7 mm 2 mps 719 mmHg 95%
    03:00 +7°C° 0.7 mm 2 mps 718 mmHg 94%
    04:00 +7°C° 0.7 mm 2 mps 717 mmHg 94%
    05:00 +7°C° 0.5 mm 3 mps 716 mmHg 91%
    06:00 +7°C° 0.5 mm 3 mps 716 mmHg 89%
    07:00 +7°C° 0.5 mm 3 mps 715 mmHg 87%
    08:00 +7°C° 0.9 mm 3 mps 714 mmHg 85%
    09:00 +7°C° 0.9 mm 3 mps 714 mmHg 84%
    10:00 +8°C° 0.9 mm 2 mps 713 mmHg 82%
    11:00 +7°C° 0.7 mm 4 mps 714 mmHg 83%
    12:00 +7°C° 0.7 mm 5 mps 714 mmHg 85%
    13:00 +6°C° 0.7 mm 7 mps 714 mmHg 86%
    14:00 +7°C° 0.4 mm 6 mps 714 mmHg 85%
    15:00 +5°C° 0.4 mm 6 mps 714 mmHg 85%
    16:00 +5°C° 0.4 mm 6 mps 715 mmHg 85%
    17:00 +4°C° 0.2 mm 6 mps 715 mmHg 82%
    18:00 +3°C° 0.2 mm 7 mps 716 mmHg 79%
    19:00 +1°C° 0.2 mm 8 mps 717 mmHg 76%
    20:00 +1°C° 0.1 mm 8 mps 718 mmHg 77%
    21:00 +1°C° 0.1 mm 9 mps 719 mmHg 78%
    22:00 +1°C° 0.1 mm 10 mps 720 mmHg 79%
    23:00 0°C° 0.6 mm 9 mps 721 mmHg 81%

    26 November, Sunday

    Time Temperature Precipitation Wind Pressure Humidity
    00:00 -1°C° 0.6 mm 9 mps 722 mmHg 82%
    01:00 -1°C° 0.6 mm 8 mps 723 mmHg 83%
    02:00 -2°C° 0.1 mm 7 mps 724 mmHg 83%
    03:00 -2°C° 0.1 mm 7 mps 725 mmHg 84%
    04:00 -3°C° 0.1 mm 6 mps 725 mmHg 84%
    05:00 -3°C° 0 mm 6 mps 726 mmHg 84%
    06:00 -2°C° 0 mm 5 mps 727 mmHg 84%
    07:00 -2°C° 0 mm 5 mps 727 mmHg 85%
    08:00 -2°C° 0 mm 5 mps 727 mmHg 83%
    09:00 -1°C° 0 mm 5 mps 727 mmHg 81%
    10:00 -1°C° 0 mm 5 mps 728 mmHg 79%
    11:00 0°C° 0.1 mm 5 mps 727 mmHg 76%
    12:00 0°C° 0.1 mm 5 mps 727 mmHg 74%
    13:00 +1°C° 0.1 mm 6 mps 727 mmHg 71%
    14:00 0°C° 0.1 mm 5 mps 727 mmHg 74%
    15:00 0°C° 0.1 mm 4 mps 727 mmHg 76%
    16:00 -1°C° 0.1 mm 4 mps 727 mmHg 78%
    17:00 -1°C° 0 mm 4 mps 727 mmHg 80%
    18:00 -1°C° 0 mm 4 mps 728 mmHg 82%
    19:00 -2°C° 0 mm 4 mps 728 mmHg 84%
    20:00 -2°C° 0.1 mm 4 mps 728 mmHg 84%
    21:00 -1°C° 0.1 mm 4 mps 728 mmHg 85%
    22:00 -1°C° 0.1 mm 4 mps 728 mmHg 85%
    23:00 -1°C° 0.1 mm 4 mps 728 mmHg 86%

    27 November, Monday

    Time Temperature Precipitation Wind Pressure Humidity
    00:00 -1°C° 0.1 mm 4 mps 728 mmHg 86%
    01:00 -2°C° 0.1 mm 4 mps 728 mmHg 87%
    02:00 -2°C° 0 mm 4 mps 728 mmHg 87%
    03:00 -2°C° 0 mm 4 mps 728 mmHg 87%
    04:00 -2°C° 0 mm 4 mps 728 mmHg 87%
    05:00 -2°C° 0 mm 4 mps 728 mmHg 88%
    06:00 -2°C° 0 mm 4 mps 727 mmHg 88%
    07:00 -1°C° 0 mm 3 mps 727 mmHg 89%
    08:00 -1°C° 0 mm 4 mps 727 mmHg 87%
    09:00 -1°C° 0 mm 4 mps 727 mmHg 85%
    10:00 0°C° 0 mm 4 mps 727 mmHg 83%
    11:00 0°C° 0 mm 4 mps 727 mmHg 81%
    12:00 +1°C° 0 mm 4 mps 727 mmHg 78%
    13:00 +1°C° 0 mm 4 mps 726 mmHg 76%
    14:00 +1°C° 0 mm 4 mps 726 mmHg 78%
    15:00 +2°C° 0 mm 3 mps 725 mmHg 80%
    16:00 +1°C° 0 mm 3 mps 725 mmHg 82%
    17:00 +1°C° 0 mm 3 mps 725 mmHg 84%
    18:00 0°C° 0 mm 3 mps 725 mmHg 86%
    19:00 -1°C° 0 mm 3 mps 724 mmHg 88%
    20:00 -1°C° 0 mm 3 mps 724 mmHg 86%
    21:00 -2°C° 0 mm 4 mps 723 mmHg 85%
    22:00 -2°C° 0 mm 4 mps 723 mmHg 84%
    23:00 -1°C° 0 mm 4 mps 722 mmHg 82%

    28 November, Tuesday

    Time Temperature Precipitation Wind Pressure Humidity
    00:00 -1°C° 0 mm 4 mps 722 mmHg 80%
    01:00 -1°C° 0 mm 5 mps 721 mmHg 79%
    02:00 0°C° 0.2 mm 5 mps 721 mmHg 77%
    03:00 0°C° 0.2 mm 5 mps 720 mmHg 76%
    04:00 0°C° 0.2 mm 5 mps 720 mmHg 75%
    05:00 0°C° 0.4 mm 5 mps 719 mmHg 77%
    06:00 -1°C° 0.4 mm 6 mps 719 mmHg 79%
    07:00 -1°C° 0.4 mm 6 mps 719 mmHg 81%
    08:00 -1°C° 0.2 mm 6 mps 719 mmHg 81%
    09:00 +1°C° 0.2 mm 6 mps 718 mmHg 82%
    10:00 +1°C° 0.2 mm 6 mps 718 mmHg 82%
    11:00 +1°C° 0.3 mm 5 mps 718 mmHg 83%
    12:00 +1°C° 0.3 mm 5 mps 717 mmHg 83%
    13:00 +2°C° 0.3 mm 5 mps 716 mmHg 84%
    14:00 +1°C° 0.3 mm 5 mps 716 mmHg 85%
    15:00 +1°C° 0.3 mm 4 mps 716 mmHg 86%
    16:00 +1°C° 0.3 mm 4 mps 716 mmHg 87%
    17:00 +1°C° 0.3 mm 4 mps 716 mmHg 88%
    18:00 +1°C° 0.3 mm 4 mps 716 mmHg 88%
    19:00 0°C° 0.3 mm 4 mps 716 mmHg 89%
    20:00 0°C° 0.4 mm 4 mps 715 mmHg 90%
    21:00 0°C° 0.4 mm 4 mps 715 mmHg 91%
    22:00 +1°C° 0.4 mm 3 mps 715 mmHg 92%
    23:00 +1°C° 0.2 mm 3 mps 715 mmHg 92%
    Show more